Time,TemperatureF,DewpointF,PressureIn,WindDirection,WindDirectionDegrees,WindSpeedMPH,WindSpeedGustMPH,Humidity,HourlyPrecipIn,Conditions,Clouds,dailyrainin,SoftwareType,DateUTC
2013-05-02 00:00:00,4.0,-99.9,-100.00,North,-999,-999.0,-999.0,-999,-99.99,,,-99.99,,2013-05-02 06:00:00,
2013-05-02 00:42:00,4.0,-99.9,-100.00,North,-999,-999.0,-999.0,-999,-99.99,,,-99.99,,2013-05-02 06:42:00,
2013-05-02 00:52:00,4.0,-99.9,-100.00,North,-999,-999.0,-999.0,-999,-99.99,,,-99.99,,2013-05-02 06:52:00,
2013-05-02 02:00:00,5.0,-99.9,-100.00,North,-999,-999.0,-999.0,-999,-99.99,,,0.00,,2013-05-02 08:00:00,
2013-05-02 03:00:00,6.0,-99.9,-100.00,North,-999,-999.0,-999.0,-999,-99.99,,,-99.99,,2013-05-02 09:00:00,
2013-05-02 04:00:00,8.0,-99.9,-100.00,North,-999,-999.0,-999.0,-999,-99.99,,,-99.99,,2013-05-02 10:00:00,
2013-05-02 05:00:00,7.0,-99.9,-100.00,North,-999,-999.0,-999.0,-999,-99.99,,,0.00,,2013-05-02 11:00:00,
2013-05-02 05:52:00,7.0,-99.9,-100.00,North,-999,-999.0,-999.0,-999,-99.99,,,0.00,,2013-05-02 11:52:00,
2013-05-02 06:00:00,8.0,-99.9,-100.00,North,-999,-999.0,-999.0,-999,-99.99,,,-99.99,,2013-05-02 12:00:00,
2013-05-02 07:00:00,11.0,-99.9,-100.00,North,-999,-999.0,-999.0,-999,-99.99,,,-99.99,,2013-05-02 13:00:00,
2013-05-02 08:00:00,17.0,-99.9,-100.00,North,-999,-999.0,-999.0,-999,-99.99,,,0.00,,2013-05-02 14:00:00,
2013-05-02 09:00:00,24.0,-99.9,-100.00,North,-999,-999.0,-999.0,-999,-99.99,,,-99.99,,2013-05-02 15:00:00,
2013-05-02 10:00:00,31.0,-99.9,-100.00,North,-999,-999.0,-999.0,-999,-99.99,,,-99.99,,2013-05-02 16:00:00,
2013-05-02 11:00:00,35.0,-99.9,-100.00,North,-999,-999.0,-999.0,-999,-99.99,,,0.01,,2013-05-02 17:00:00,
2013-05-02 11:52:00,35.0,-99.9,-100.00,North,-999,-999.0,-999.0,-999,-99.99,,,0.01,,2013-05-02 17:52:00,
2013-05-02 12:00:00,37.0,-99.9,-100.00,North,-999,-999.0,-999.0,-999,-99.99,,,-99.99,,2013-05-02 18:00:00,
2013-05-02 13:00:00,40.0,-99.9,-100.00,North,-999,-999.0,-999.0,-999,-99.99,,,-99.99,,2013-05-02 19:00:00,
2013-05-02 14:00:00,42.0,-99.9,-100.00,North,-999,-999.0,-999.0,-999,-99.99,,,0.01,,2013-05-02 20:00:00,
2013-05-02 15:00:00,43.0,-99.9,-100.00,North,-999,-999.0,-999.0,-999,-99.99,,,-99.99,,2013-05-02 21:00:00,
2013-05-02 15:43:00,43.0,-99.9,-100.00,North,-999,-999.0,-999.0,-999,-99.99,,,-99.99,,2013-05-02 21:43:00,
2013-05-02 15:53:00,43.0,-99.9,-100.00,North,-999,-999.0,-999.0,-999,-99.99,,,-99.99,,2013-05-02 21:53:00,
2013-05-02 16:00:00,45.0,-99.9,-100.00,North,-999,-999.0,-999.0,-999,-99.99,,,-99.99,,2013-05-02 22:00:00,
2013-05-02 17:00:00,41.0,-99.9,-100.00,North,-999,-999.0,-999.0,-999,-99.99,,,0.01,,2013-05-02 23:00:00,
2013-05-02 18:00:00,38.0,-99.9,-100.00,North,-999,-999.0,-999.0,-999,-99.99,,,-99.99,,2013-05-03 00:00:00,
2013-05-02 19:00:00,36.0,-99.9,-100.00,North,-999,-999.0,-999.0,-999,-99.99,,,-99.99,,2013-05-03 01:00:00,
2013-05-02 19:52:00,36.0,-99.9,-100.00,North,-999,-999.0,-999.0,-999,-99.99,,,-99.99,,2013-05-03 01:52:00,
2013-05-02 20:00:00,33.0,-99.9,-100.00,North,-999,-999.0,-999.0,-999,-99.99,,,0.01,,2013-05-03 02:00:00,
2013-05-02 21:00:00,32.0,-99.9,-100.00,North,-999,-999.0,-999.0,-999,-99.99,,,-99.99,,2013-05-03 03:00:00,
2013-05-02 22:00:00,31.0,-99.9,-100.00,North,-999,-999.0,-999.0,-999,-99.99,,,-99.99,,2013-05-03 04:00:00,
2013-05-02 23:00:00,27.0,-99.9,-100.00,North,-999,-999.0,-999.0,-999,-99.99,,,0.02,,2013-05-03 05:00:00,
2013-05-02 23:52:00,27.0,-99.9,-100.00,North,-999,-999.0,-999.0,-999,-99.99,,,0.02,,2013-05-03 05:52:00,